Weather History for ENGM - May, 2013

Change the Weather History Date:

Friday, May 17, 2013

  Actual Average Record
Temperature  
Mean Temperature 58 °F -  
Max Temperature 68 °F 60 °F 75 °F (1998)
Min Temperature 48 °F 44 °F 33 °F (2005)
Degree Days  
Heating Degree Days 7    
Growing Degree Days 8 (Base 50)    
Moisture  
Dew Point 43 °F    
Average Humidity 54    
Maximum Humidity 82    
Minimum Humidity 34    
Precipitation  
Precipitation 0.00 in 0.09 in - ()
Sea Level Pressure  
Sea Level Pressure 29.92 in    
Wind  
Wind Speed 7 mph ()    
Max Wind Speed 16 mph    
Max Gust Speed -    
Visibility 6.2 miles    
Events Rain    
Averages and records for this station are not official NWS values.
T = Trace of Precipitation, MM = Missing Value Source: Averaged Metar Reports

Daily Weather History Graph

Daily Weather History Graph

Search for Another Location

Airport or City:

Trip Planner

Search our weather history database for the weather conditions in past years. The results will help you decide how hot, cold, wet, or windy it might be!

Date:

Astronomy

May. 17, 2013 Rise Set
Actual Time 4:31 AM CEST 9:54 PM CEST
Civil Twilight 3:25 AM CEST 11:01 PM CEST
Nautical Twilight 1:44 AM CEST 12:39 AM CEST
Astronomical Twilight Sun does not rise Sun does not rise
Moon 11:33 AM CEST (5/17) 1:56 AM CEST (5/17)
Length of Visible Light 19h 36m
Length of Day
17h 22m
Waxing Crescent, 42% of the Moon is Illuminated
May 17
Waxing Crescent
May 18
First Quarter
May 25
Full
May 31
Last Quarter
Jun 8
New

Hourly Weather History & Observations

Time (CEST) Temp. Dew Point Humidity Pressure Visibility Wind Dir Wind Speed Gust Speed Precip Events Conditions
12:20 AM 57.2 °F 41.0 °F 55% 29.92 in - East 4.6 mph - N/A   Clear
12:50 AM 57.2 °F 37.4 °F 48% 29.92 in - ESE 6.9 mph - N/A   Clear
1:20 AM 55.4 °F 37.4 °F 51% 29.92 in - NE 4.6 mph - N/A   Clear
1:50 AM 55.4 °F 37.4 °F 51% 29.92 in - East 4.6 mph - N/A   Clear
2:00 AM 54 °F 37 °F 42%  in 31 mi NE 4.5 mph - -   Partly Cloudy
2:20 AM 53.6 °F 35.6 °F 51% 29.92 in - NE 6.9 mph - N/A   Clear
2:50 AM 51.8 °F 35.6 °F 54% 29.92 in - NNE 4.6 mph - N/A   Clear
3:20 AM 51.8 °F 37.4 °F 58% 29.92 in - NNE 5.8 mph - N/A   Clear
3:50 AM 48.2 °F 37.4 °F 66% 29.92 in - North 5.8 mph - N/A   Clear
4:20 AM 51.8 °F 39.2 °F 62% 29.95 in - North 5.8 mph - N/A   Clear
4:50 AM 51.8 °F 39.2 °F 62% 29.92 in 6.2 mi NNE 6.9 mph - N/A   Mostly Cloudy
5:20 AM 51.8 °F 37.4 °F 58% 29.92 in 6.2 mi North 6.9 mph - N/A   Mostly Cloudy
5:50 AM 51.8 °F 35.6 °F 54% 29.95 in 6.2 mi North 8.1 mph - N/A   Mostly Cloudy
6:20 AM 53.6 °F 35.6 °F 51% 29.95 in 6.2 mi North 5.8 mph - N/A   Mostly Cloudy
6:50 AM 53.6 °F 35.6 °F 51% 29.95 in 6.2 mi North 9.2 mph - N/A   Mostly Cloudy
7:20 AM 53.6 °F 33.8 °F 47% 29.95 in 6.2 mi NNE 10.4 mph - N/A   Mostly Cloudy
7:50 AM 55.4 °F 35.6 °F 47% 29.95 in - NNE 10.4 mph - N/A   Clear
8:00 AM 55 °F 35 °F 34%  in 44 mi NNE 11.2 mph - -   Partly Cloudy
8:20 AM 55.4 °F 35.6 °F 47% 29.95 in - NNE 9.2 mph - N/A   Clear
8:50 AM 55.4 °F 35.6 °F 47% 29.95 in 6.2 mi NNE 10.4 mph - N/A   Mostly Cloudy
9:20 AM 55.4 °F 35.6 °F 47% 29.95 in 6.2 mi NNE 13.8 mph - N/A   Mostly Cloudy
9:50 AM 57.2 °F 35.6 °F 44% 29.95 in 6.2 mi NNE 15.0 mph - N/A   Mostly Cloudy
10:20 AM 57.2 °F 39.2 °F 51% 29.95 in - NNE 13.8 mph - N/A   Clear
10:50 AM 59.0 °F 39.2 °F 48% 29.95 in - NNE 16.1 mph - N/A   Clear
11:20 AM 60.8 °F 39.2 °F 45% 29.95 in - NNE 13.8 mph - N/A   Clear
11:50 AM 59.0 °F 39.2 °F 48% 29.92 in - NNE 13.8 mph - N/A   Clear
12:20 PM 59.0 °F 39.2 °F 48% 29.92 in 6.2 mi NNE 15.0 mph - N/A   Mostly Cloudy
12:50 PM 60.8 °F 41.0 °F 48% 29.92 in 6.2 mi NNE 13.8 mph - N/A   Mostly Cloudy
1:20 PM 62.6 °F 44.6 °F 52% 29.92 in 6.2 mi NNE 13.8 mph - N/A   Mostly Cloudy
1:50 PM 64.4 °F 46.4 °F 52% 29.92 in - NE 12.7 mph - N/A   Clear
2:00 PM 64 °F 46 °F 41%  in 44 mi NNE 13.4 mph - -   Partly Cloudy
2:20 PM 68.0 °F 46.4 °F 46% 29.92 in - NNE 15.0 mph - N/A   Clear
2:50 PM 68.0 °F 48.2 °F 49% 29.92 in - NNE 10.4 mph - N/A   Clear
3:20 PM 68.0 °F 48.2 °F 49% 29.89 in - North 11.5 mph - N/A   Clear
3:50 PM 66.2 °F 51.8 °F 60% 29.89 in 6.2 mi North 9.2 mph - N/A Rain Light Rain Showers
4:20 PM 66.2 °F 51.8 °F 60% 29.89 in - North 6.9 mph - N/A   Clear
4:50 PM 66.2 °F 50.0 °F 56% 29.89 in - North 6.9 mph - N/A   Clear
5:20 PM 68.0 °F 50.0 °F 52% 29.89 in 6.2 mi North 6.9 mph - N/A   Unknown
5:50 PM 66.2 °F 51.8 °F 60% 29.89 in 6.2 mi North 6.9 mph - N/A   Unknown
6:20 PM 68.0 °F 50.0 °F 52% 29.89 in - NNE 9.2 mph - N/A   Clear
6:50 PM 68.0 °F 51.8 °F 56% 29.89 in - NNE 8.1 mph - N/A   Clear
7:20 PM 68.0 °F 50.0 °F 52% 29.89 in - NE 9.2 mph - N/A   Clear
7:50 PM 66.2 °F 50.0 °F 56% 29.89 in - NNE 9.2 mph - N/A   Clear
8:00 PM 65 °F 51 °F 49%  in 44 mi NE 6.7 mph - -   Partly Cloudy
8:20 PM 66.2 °F 50.0 °F 56% 29.89 in - NE 6.9 mph - N/A   Clear
8:50 PM 64.4 °F 50.0 °F 59% 29.89 in - NE 8.1 mph - N/A   Clear
9:20 PM 62.6 °F 50.0 °F 63% 29.92 in - NE 6.9 mph - N/A   Clear
9:50 PM 60.8 °F 50.0 °F 68% 29.92 in - NNE 5.8 mph - N/A   Clear
10:20 PM 60.8 °F 51.8 °F 72% 29.92 in - NE 6.9 mph - N/A   Clear
10:50 PM 59.0 °F 50.0 °F 72% 29.92 in - NNE 5.8 mph - N/A   Clear
11:20 PM 57.2 °F 50.0 °F 77% 29.95 in - NNE 5.8 mph - N/A   Clear
11:50 PM 55.4 °F 50.0 °F 82% 29.95 in - NNE 5.8 mph - N/A   Clear